Danville, IN

12:15 PM EDT on July 27, 2017 (GMT -0400)
Vermilion County

Weather History for KDNV - March, 2013

Change the Weather History Date:

Sunday, March 17, 2013

  Actual Average (KLAF) Record (KLAF)
Temperature  
Mean Temperature 35 °F -  
Max Temperature 40 °F 48 °F 79 °F (2012)
Min Temperature 31 °F 29 °F 15 °F (2014)
Degree Days  
Heating Degree Days 30    
Moisture  
Dew Point 27 °F    
Average Humidity 74    
Maximum Humidity 88    
Minimum Humidity 63    
Precipitation  
Precipitation 0.00 in - - ()
Sea Level Pressure  
Sea Level Pressure 30.04 in    
Wind  
Wind Speed 11 mph (ENE)    
Max Wind Speed 20 mph    
Max Gust Speed 25 mph    
Visibility 10 miles    
Events Rain    
Averages and records for this station are not official NWS values.
T = Trace of Precipitation, MM = Missing Value Source: NWS Daily Summary

Daily Weather History Graph

Daily Weather History Graph

Search for Another Location

Airport or City:

Trip Planner

Search our weather history database for the weather conditions in past years. The results will help you decide how hot, cold, wet, or windy it might be!

Date:

Astronomy

Mar. 17, 2013 Rise Set
Actual Time 6:58 AM CDT 6:59 PM CDT
Civil Twilight 6:31 AM CDT 7:26 PM CDT
Nautical Twilight 5:59 AM CDT 7:58 PM CDT
Astronomical Twilight 5:27 AM CDT 8:30 PM CDT
Moon 10:10 AM CDT (3/17) 12:07 AM CDT (3/17)
Length of Visible Light 12h 55m
Length of Day
12h 01m
Waxing Crescent, 31% of the Moon is Illuminated
Mar 17
Waxing Crescent
Mar 19
First Quarter
Mar 27
Full
Apr 2
Last Quarter
Apr 10
New

Hourly Weather History & Observations

Time (CDT) Temp. Windchill Dew Point Humidity Pressure Visibility Wind Dir Wind Speed Gust Speed Precip Events Conditions
12:15 AM 32.0 °F 24.8 °F 27.1 °F 82% 30.06 in 10.0 mi NE 8.1 mph - N/A   Overcast
12:35 AM 32.0 °F 24.2 °F 26.6 °F 80% 30.06 in 10.0 mi NNE 9.2 mph - N/A   Overcast
12:55 AM 32.0 °F 24.2 °F 26.6 °F 80% 30.06 in 10.0 mi NNE 9.2 mph - N/A   Overcast
1:15 AM 32.0 °F 23.0 °F 27.0 °F 82% 30.05 in 10.0 mi NNE 11.5 mph - N/A   Mostly Cloudy
1:35 AM 31.8 °F 21.8 °F 27.0 °F 82% 30.05 in 10.0 mi NNE 13.8 mph - N/A   Clear
1:55 AM 31.6 °F 22.6 °F 26.6 °F 82% 30.05 in 10.0 mi NNE 11.5 mph - N/A   Clear
2:15 AM 31.6 °F 22.1 °F 26.6 °F 82% 30.05 in 10.0 mi NNE 12.7 mph - N/A   Clear
2:35 AM 31.5 °F 22.9 °F 26.8 °F 83% 30.06 in 10.0 mi NNE 10.4 mph - N/A   Clear
2:55 AM 31.5 °F 21.8 °F 26.6 °F 82% 30.05 in 10.0 mi NE 12.7 mph 16.1 mph N/A   Clear
3:15 AM 31.5 °F 23.5 °F 26.8 °F 83% 30.06 in 10.0 mi NE 9.2 mph - N/A   Clear
3:35 AM 31.5 °F 22.3 °F 25.9 °F 80% 30.06 in 10.0 mi NE 11.5 mph - N/A   Clear
3:55 AM 31.5 °F 23.5 °F 25.9 °F 80% 30.06 in 10.0 mi NE 9.2 mph - N/A   Scattered Clouds
4:15 AM 31.5 °F 24.2 °F 25.7 °F 79% 30.07 in 10.0 mi NE 8.1 mph - N/A   Scattered Clouds
4:35 AM 31.5 °F 24.2 °F 25.7 °F 79% 30.06 in 10.0 mi NE 8.1 mph - N/A   Mostly Cloudy
4:55 AM 31.5 °F 24.2 °F 25.7 °F 79% 30.07 in 10.0 mi NE 8.1 mph - N/A   Overcast
5:15 AM 31.5 °F 24.9 °F 25.7 °F 79% 30.09 in 10.0 mi NE 6.9 mph - N/A   Overcast
5:35 AM 31.5 °F 24.2 °F 25.7 °F 79% 30.10 in 10.0 mi NE 8.1 mph - N/A   Overcast
5:55 AM 31.5 °F 24.9 °F 25.9 °F 80% 30.11 in 10.0 mi ENE 6.9 mph - N/A   Scattered Clouds
6:15 AM 31.5 °F 25.8 °F 25.5 °F 79% 30.13 in 10.0 mi ENE 5.8 mph - N/A   Mostly Cloudy
6:35 AM 31.5 °F 23.5 °F 25.7 °F 79% 30.13 in 10.0 mi ENE 9.2 mph - N/A   Scattered Clouds
6:55 AM 31.5 °F 24.2 °F 25.5 °F 79% 30.12 in 10.0 mi ENE 8.1 mph - N/A   Mostly Cloudy
7:15 AM 31.5 °F 24.2 °F 25.3 °F 78% 30.12 in 10.0 mi ENE 8.1 mph - N/A   Mostly Cloudy
7:35 AM 31.5 °F 23.5 °F 25.2 °F 78% 30.11 in 10.0 mi ENE 9.2 mph - N/A   Scattered Clouds
7:55 AM 31.5 °F 24.2 °F 25.2 °F 78% 30.12 in 10.0 mi ENE 8.1 mph - N/A   Scattered Clouds
8:15 AM 31.8 °F 24.6 °F 25.2 °F 76% 30.13 in 10.0 mi ENE 8.1 mph - N/A   Mostly Cloudy
8:35 AM 32.0 °F 22.5 °F 24.8 °F 75% 30.13 in 10.0 mi ENE 12.7 mph - N/A   Overcast
8:55 AM 32.0 °F 23.0 °F 24.3 °F 73% 30.13 in 10.0 mi ENE 11.5 mph - N/A   Overcast
9:15 AM 32.0 °F 23.6 °F 24.6 °F 74% 30.13 in 10.0 mi ENE 10.4 mph 16.1 mph N/A   Overcast
9:35 AM 32.0 °F 23.6 °F 25.2 °F 76% 30.12 in 10.0 mi ENE 10.4 mph - N/A   Overcast
9:55 AM 32.0 °F 24.2 °F 24.6 °F 74% 30.13 in 10.0 mi East 9.2 mph - N/A   Overcast
10:15 AM 32.2 °F 22.7 °F 24.8 °F 74% 30.13 in 10.0 mi East 12.7 mph 18.4 mph N/A   Overcast
10:35 AM 32.4 °F 22.1 °F 25.2 °F 75% 30.13 in 10.0 mi East 15.0 mph 18.4 mph N/A   Overcast
10:55 AM 32.9 °F 22.8 °F 25.3 °F 74% 30.11 in 10.0 mi East 15.0 mph - N/A   Overcast
11:15 AM 32.9 °F 23.7 °F 25.2 °F 73% 30.12 in 10.0 mi East 12.7 mph 18.4 mph N/A   Overcast
11:35 AM 33.8 °F 24.3 °F 25.5 °F 72% 30.12 in 10.0 mi East 13.8 mph - N/A   Overcast
11:55 AM 34.3 °F 25.5 °F 25.5 °F 70% 30.12 in 10.0 mi East 12.7 mph 19.6 mph N/A   Mostly Cloudy
12:15 PM 35.4 °F 26.8 °F 26.1 °F 69% 30.11 in 10.0 mi East 12.7 mph 16.1 mph N/A   Scattered Clouds
12:35 PM 36.1 °F 27.3 °F 26.2 °F 67% 30.11 in 10.0 mi East 13.8 mph 19.6 mph N/A   Scattered Clouds
12:55 PM 36.3 °F 27.5 °F 26.4 °F 67% 30.10 in 10.0 mi East 13.8 mph 19.6 mph N/A   Scattered Clouds
1:15 PM 36.5 °F 28.2 °F 26.2 °F 66% 30.09 in 10.0 mi East 12.7 mph - N/A   Scattered Clouds
1:35 PM 37.8 °F 28.6 °F 26.8 °F 65% 30.08 in 10.0 mi ENE 16.1 mph 24.2 mph N/A   Scattered Clouds
1:55 PM 37.6 °F 28.1 °F 27.0 °F 66% 30.07 in 10.0 mi East 17.3 mph 23.0 mph N/A   Scattered Clouds
2:15 PM 38.5 °F 30.3 °F 27.0 °F 63% 30.06 in 10.0 mi East 13.8 mph 21.9 mph N/A   Scattered Clouds
2:35 PM 38.8 °F 30.0 °F 27.7 °F 64% 30.04 in 10.0 mi East 16.1 mph 19.6 mph N/A   Clear
2:55 PM 38.5 °F 29.9 °F 27.3 °F 64% 30.03 in 10.0 mi East 15.0 mph 23.0 mph N/A   Clear
3:15 PM 39.4 °F 31.1 °F 27.7 °F 63% 30.01 in 10.0 mi ENE 15.0 mph - N/A   Clear
3:35 PM 39.0 °F 30.6 °F 27.9 °F 64% 30.01 in 10.0 mi East 15.0 mph 24.2 mph N/A   Clear
3:55 PM 39.9 °F 31.4 °F 28.4 °F 63% 30.00 in 10.0 mi East 16.1 mph - N/A   Clear
4:15 PM 39.6 °F 30.0 °F 28.2 °F 64% 30.00 in 10.0 mi East 19.6 mph 25.3 mph N/A   Clear
4:35 PM 38.8 °F 30.8 °F 28.0 °F 65% 30.00 in 10.0 mi East 13.8 mph 20.7 mph N/A   Clear
4:55 PM 38.5 °F 30.3 °F 27.5 °F 65% 30.01 in 10.0 mi East 13.8 mph 20.7 mph N/A   Scattered Clouds
5:15 PM 38.3 °F 30.5 °F 28.2 °F 67% 30.00 in 10.0 mi East 12.7 mph 18.4 mph N/A   Scattered Clouds
5:35 PM 37.9 °F 30.5 °F 28.4 °F 69% 30.00 in 10.0 mi East 11.5 mph 17.3 mph N/A   Overcast
5:55 PM 37.6 °F 30.0 °F 28.2 °F 69% 30.00 in 10.0 mi East 11.5 mph 17.3 mph N/A   Overcast
6:15 PM 37.2 °F 28.3 °F 28.0 °F 69% 29.99 in 10.0 mi East 15.0 mph 19.6 mph N/A   Overcast
6:35 PM 36.9 °F 28.7 °F 27.5 °F 69% 30.00 in 10.0 mi East 12.7 mph 19.6 mph N/A   Overcast
6:55 PM 36.5 °F 29.2 °F 28.0 °F 71% 30.00 in 10.0 mi East 10.4 mph 19.6 mph N/A   Overcast
7:15 PM 36.5 °F 28.2 °F 27.5 °F 70% 29.99 in 10.0 mi East 12.7 mph 17.3 mph N/A   Overcast
7:35 PM 36.0 °F 26.3 °F 27.7 °F 72% 29.98 in 10.0 mi East 16.1 mph 19.6 mph N/A   Overcast
7:55 PM 35.8 °F 27.3 °F 27.9 °F 73% 29.98 in 10.0 mi East 12.7 mph 18.4 mph N/A   Mostly Cloudy
8:15 PM 35.8 °F 26.5 °F 27.9 °F 73% 29.98 in 10.0 mi East 15.0 mph 19.6 mph N/A   Mostly Cloudy
8:35 PM 35.8 °F 27.3 °F 27.5 °F 72% 29.97 in 10.0 mi East 12.7 mph 19.6 mph N/A   Overcast
8:55 PM 35.6 °F 26.2 °F 28.0 °F 74% 29.96 in 10.0 mi East 15.0 mph 20.7 mph N/A   Overcast
9:15 PM 35.6 °F 26.6 °F 28.2 °F 75% 29.96 in 10.0 mi East 13.8 mph - N/A   Overcast
9:35 PM 35.6 °F 26.2 °F 28.4 °F 75% 29.94 in 10.0 mi East 15.0 mph 23.0 mph N/A   Overcast
9:55 PM 35.2 °F 25.0 °F 28.4 °F 76% 29.92 in 10.0 mi East 17.3 mph 23.0 mph N/A   Overcast
10:15 PM 35.2 °F 26.2 °F 28.4 °F 76% 29.93 in 10.0 mi East 13.8 mph 24.2 mph N/A   Overcast
10:35 PM 35.1 °F 25.2 °F 28.6 °F 77% 29.92 in 10.0 mi East 16.1 mph 21.9 mph N/A   Overcast
10:55 PM 34.7 °F 24.7 °F 28.9 °F 79% 29.89 in 10.0 mi East 16.1 mph 23.0 mph N/A   Scattered Clouds
11:15 PM 34.7 °F 25.5 °F 28.9 °F 79% 29.90 in 10.0 mi East 13.8 mph 20.7 mph N/A Rain Light Rain
11:35 PM 33.8 °F 24.3 °F 29.3 °F 84% 29.90 in 10.0 mi East 13.8 mph 20.7 mph N/A Rain Light Rain
11:55 PM 33.1 °F 22.6 °F 29.8 °F 88% 29.89 in 10.0 mi East 16.1 mph 20.7 mph N/A Rain Light Rain